Simultaneous Nadir Overpasses (SNOs) Predictions

Prediction of SNOs between GOES-16 and LANDSAT-8 Satellite Orbit:

Table of predicted SNOs for the next 14.0 days since TLE Epoch: 2/27/2021
Index Date Time (GOES-16) GOES-16 Lat,Lon LANDSAT-8 Lat,Lon Distance(km) Time Diff (sec)
1 02/28/2021 02:57:25 -0.03, -75.18 0.74, -71.70 396.72 80
2 02/28/2021 15:18:40 0.03, -75.21 0.37, -76.85 186.39 80
3 03/02/2021 15:09:08 0.03, -75.22 -0.27, -73.90 150.74 80
4 03/03/2021 03:30:32 -0.03, -75.20 -0.83, -79.09 442.18 80
5 03/04/2021 14:56:56 0.02, -75.23 -0.92, -70.95 488.11 80
6 03/05/2021 03:18:19 -0.02, -75.21 -0.25, -76.13 104.84 80
7 03/07/2021 03:03:27 -0.02, -75.22 0.41, -73.17 232.82 80
8 03/07/2021 15:24:42 0.02, -75.25 0.70, -78.33 350.48 80
9 03/09/2021 15:12:30 0.01, -75.27 0.05, -75.37 12.41 80
10 03/11/2021 15:02:58 0.00, -75.30 -0.61, -72.42 327.13 80
11 03/12/2021 03:24:22 -0.00, -75.28 -0.49, -77.61 264.68 80
